Regional Weather Roundup
Issued by NWS

Home | Current Version | Previous Version | Graphics & Text | Print | Product List | Glossary On
Versions: 1 2 3 4 5 6 7 8 9 10 11 12 13 14 15 16 17 18 19 20 21 22 23 24 25 26 27 28 29 30 31 32 33 34 35 36 37 38 39 40 41 42 43 44 45 46 47 48 49 50
000
ASUS43 KLOT 300606
RWRIL

ILLINOIS REGIONAL WEATHER ROUNDUP
NATIONAL WEATHER SERVICE CHICAGO/ROMEOVILLE IL
100 AM CDT WED JUL 30 2014

NOTE: "FAIR" INDICATES FEW OR NO CLOUDS BELOW 12,000 FEET WITH NO
SIGNIFICANT WEATHER AND/OR OBSTRUCTIONS TO VISIBILITY.

* THESE STATIONS ARE NOT UNDER NWS QUALITY CONTROL. THEY ALSO MAY NOT
  REPORT WEATHER SUCH AS PRECIPITATION OR FOG.

ILZ001-002-007-009-015-016-024-300700-
NORTHWEST ILLINOIS

CITY           SKY/WX    TMP DP  RH WIND       PRES   REMARKS
MOLINE         CLEAR     62  58  86 CALM      30.06R
6HR MIN TEMP:  61; 6HR MAX TEMP:  77;

STERLING*      MOCLDY    63  57  82 CALM      30.05S
SAVANNA*       CLOUDY    63  59  86 CALM      30.04F
$$

ILZ003-004-008-010-011-017-018-300700-
NORTH CENTRAL ILLINOIS

CITY           SKY/WX    TMP DP  RH WIND       PRES   REMARKS
ROCKFORD       MOCLDY    62  55  77 CALM      30.06F
6HR MIN TEMP:  61; 6HR MAX TEMP:  75;

FREEPORT*      MOCLDY    60  58  92 W5        30.06F
ROCHELLE*      CLOUDY    61  57  87 CALM      30.04F
DE KALB*       PTCLDY    57  55  92 W5        30.04F
PERU*          PTCLDY    61  57  88 CALM      30.06R
$$

ILZ005-006-012>014-019>023-300700-
NORTHEAST ILLINOIS

CITY           SKY/WX    TMP DP  RH WIND       PRES   REMARKS
CHICAGO-OHARE  PTCLDY    61  55  81 W5        30.01S
6HR MIN TEMP:  61; 6HR MAX TEMP:  75; 6HR PCP:  0.01;

CHICAGO-MIDWAY PTCLDY    65  56  72 W3        30.01S
6HR MIN TEMP:  64; 6HR MAX TEMP:  77;

AURORA         PTCLDY    59  56  89 W6        30.04S
6HR MIN TEMP:  59; 6HR MAX TEMP:  69;

LANSING*       PTCLDY    60  54  79 CALM      30.01F
JOLIET*        PTCLDY    60  57  91 CALM      30.03F
WAUKEGAN       CLEAR     58  55  90 W6        30.00S
6HR MIN TEMP:  58; 6HR MAX TEMP:  70; 6HR PCP:  0.05;

DUPAGE AIRPORT PTCLDY    60  55  83 W5        30.02S
6HR MIN TEMP:  58; 6HR MAX TEMP:  71;

KANKAKEE*      PTCLDY    63  60  91 W5        30.04S
WHEELING       CLEAR     62  59  90 W6        30.02S
6HR MIN TEMP:  62; 6HR MAX TEMP:  78; 6HR PCP:  0.14;

MORRIS*        MOCLDY    61  60  97 W3        30.03S
ROMEOVILLE*    PTCLDY    59  56  89 W3        30.02S
NORTHERLY ISL    N/A     65  57  75 SW3         N/A
$$

LMZ740>746-300700-
SOUTHERN LAKE MICHIGAN

STATION/POSITION SKY/WX   TEMP    WIND        PRES    VSBY  WAVE
                          AIR SEA DIR/SP/G                  HT/PER
                          (F)     (DEG/KT/KT) (MB)    (MI)  (FT/S)
SOUTHERN BUOY              61 61  200/  2/  4 1015.8R         1
WAUKEGAN HARBOR            62     270/  3/  7   N/A
HARRISON CRIB              63     190/  1/  2   N/A
BURNHAM HARBOR             65     210/  3/  5   N/A
CALUMET HARBOR             63      CALM  /  1 1015.1S
MICHIGAN CITY              63     100/  4/  7   N/A
MICHIGAN CITY 6N           65 68  120/  6/ 10   N/A           1/ 3
ST. JOSEPH                 64 67   CALM  /  2   N/A           1/ 3
$$

ILZ025>027-034>036-040-047-049-050-058-095>099-300700-
WEST-CENTRAL ILLINOIS

CITY           SKY/WX    TMP DP  RH WIND       PRES   REMARKS
QUINCY         CLEAR     63  57  81 W3        30.09S
GALESBURG*     CLEAR     62  57  86 W6        30.07S
MACOMB*        CLEAR     58  57  97 W6        30.10S
JACKSONVILLE*  CLEAR     61  58  91 SW6       30.10S
PITTSFIELD*    CLEAR     60  56  88 CALM      30.11S
$$

ILZ028>032-037-038-041>044-048-051>054-059>061-300700-
CENTRAL ILLINOIS

CITY           SKY/WX    TMP DP  RH WIND       PRES   REMARKS
PONTIAC        CLEAR     63  61  94 CALM      30.04F
DECATUR        CLEAR     64  57  78 W6        30.08S
PEORIA         CLEAR     66  57  72 W5        30.06S
6HR MIN TEMP:  65; 6HR MAX TEMP:  78;

LACON*         CLEAR     60  56  88 CALM      30.05S
LINCOLN*       CLEAR     65  58  77 CALM      30.05S
SPRINGFIELD    CLEAR     62  57  83 SW6       30.08S
6HR MIN TEMP:  62; 6HR MAX TEMP:  76;

TAYLORVILLE    CLEAR     55  54  94 SW3       30.08S
$$

ILZ033-039-045-046-055>057-062-063-300700-
EAST-CENTRAL ILLINOIS

CITY           SKY/WX    TMP DP  RH WIND       PRES   REMARKS
CHAMPAIGN      CLEAR     59  57  93 SW7       30.06F
DANVILLE*      CLEAR     59  57  93 SW5       30.02S
RANTOUL*       CLEAR     62  57  83 W5        30.06S
MATTOON        CLEAR     64  56  75 SW6       30.07S
PARIS*         CLEAR     61  57  88 W5        30.07S
$$

ILZ079-100>102-300700-
SOUTHWEST ILLINOIS

CITY           SKY/WX    TMP DP  RH WIND       PRES   REMARKS
ALTON          CLEAR     59  59 100 CALM      30.10S
BELLEVILLE     CLEAR     60  58  95 CALM      30.09S FOG
CAHOKIA*       CLOUDY    60  57  89 CALM      30.10R
SPARTA*        CLEAR     59  54  82 CALM      30.11S
$$

ILZ064>066-069>071-074>076-080>082-084>086-088>090-092>094-300700-
SOUTH-CENTRAL ILLINOIS

CITY           SKY/WX    TMP DP  RH WIND       PRES   REMARKS
CARBONDALE     CLEAR     59  56  89 CALM      30.10S
6HR MIN TEMP:  59; 6HR MAX TEMP:  76;

CAIRO*         CLEAR     60  56  89 CALM      30.11S
EFFINGHAM*     CLEAR     57  53  87 CALM      30.09S
MARION         CLEAR     63  59  88 CALM      30.11R
MT. VERNON     CLEAR     57  54  88 CALM      30.11R
CENTRALIA*     CLEAR     56  54  92 CALM      30.10R
SALEM*         CLEAR    N/A N/A N/A CALM      30.10S
METROPOLIS*    CLEAR     57  55  93 CALM      30.10S
$$

ILZ067-068-072-073-078-083-087-091-300700-
SOUTHEAST ILLINOIS

CITY           SKY/WX    TMP DP  RH WIND       PRES   REMARKS
LAWRENCEVILLE  CLEAR     59  57  93 SW3       30.08S
FLORA*         CLEAR     55  54  94 SW3       30.09S
FAIRFIELD*     CLEAR     57  57 100 CALM      30.09S
HARRISBURG*    CLEAR     58  58 100 CALM      30.11S
ROBINSON*      CLEAR     56  55  97 SW5       30.08F
$$

ABBREVIATIONS USED IN REMARKS
   TC - TEMPERATURE IN CELSIUS
  WCI - WIND CHILL INDEX
   HX - HEAT INDEX
  VSB - VISIBILITY
$$



USA.gov is the U.S. government's official web portal to all federal, state and local government web resources and services.